This is the latest recevied weather packets stored in our database for station/object KD7KCN-5. If no packets are shown the sender has not sent any weather packets the latest 10 day(s).
| Time | Temp. | Humidity | Pressure | Rain* | Wind** | Luminosity | Snow |
|---|---|---|---|---|---|---|---|
| 1777603322 | 15° C | 28% | 1013.3 hPa | 0 mm | - | 0 W/m² | - |
| 1777602722 | 15° C | 28% | 1013.2 hPa | 0 mm | - | 0 W/m² | - |
| 1777602123 | 15° C | 27% | 1013 hPa | 0 mm | - | 5 W/m² | - |
| 1777601523 | 15.56° C | 27% | 1013 hPa | 0 mm | - | 11 W/m² | - |
| 1777600922 | 15.56° C | 26% | 1012.8 hPa | 0 mm | - | 14 W/m² | - |
| 1777600323 | 15.56° C | 25% | 1012.8 hPa | 0 mm | - | 26 W/m² | - |
| 1777599723 | 15.56° C | 26% | 1012.7 hPa | 0 mm | - | 33 W/m² | - |
| 1777599123 | 16.11° C | 25% | 1012.5 hPa | 0 mm | - | 30 W/m² | - |
| 1777598523 | 16.11° C | 24% | 1012.5 hPa | 0 mm | - | 28 W/m² | - |
| 1777597923 | 16.67° C | 23% | 1012.4 hPa | 0 mm | - | 90 W/m² | - |
| 1777597323 | 16.11° C | 24% | 1012.3 hPa | 0 mm | - | 104 W/m² | - |
| 1777596723 | 16.67° C | 25% | 1012.2 hPa | 0 mm | - | 46 W/m² | - |
| 1777596123 | 17.22° C | 23% | 1012.2 hPa | 0 mm | - | 62 W/m² | - |
| 1777595523 | 18.33° C | 23% | 1012.2 hPa | 0 mm | - | 113 W/m² | - |
| 1777594923 | 18.33° C | 23% | 1012.1 hPa | 0 mm | - | 207 W/m² | - |
| 1777594323 | 18.89° C | 23% | 1012.2 hPa | 0 mm | - | 251 W/m² | - |
| 1777593723 | 18.33° C | 25% | 1012.2 hPa | 0 mm | - | 264 W/m² | - |
| 1777593124 | 18.33° C | 23% | 1011.5 hPa | 0 mm | - | 330 W/m² | - |
| 1777592523 | 17.78° C | 26% | 1011.4 hPa | 0 mm | - | 406 W/m² | - |
| 1777591923 | 17.78° C | 23% | 1011.4 hPa | 0 mm | - | 116 W/m² | - |
| 1777591323 | 17.78° C | 24% | 1011.5 hPa | 0 mm | - | 165 W/m² | - |
| 1777590723 | 17.22° C | 24% | 1011.5 hPa | 0 mm | - | 200 W/m² | - |
| 1777590124 | 18.33° C | 23% | 1011.5 hPa | 0 mm | - | 636 W/m² | - |
| 1777589523 | 17.78° C | 24% | 1011.6 hPa | 0 mm | - | 612 W/m² | - |
| 1777588924 | 18.33° C | 23% | 1011.8 hPa | 0 mm | - | 663 W/m² | - |
* Rain latest hour (hover to see other rain measurements)
** Current wind speed in m/s (hover to see current wind gust speed)